Starlink 2166

operational
NORAD ID: 48558 Int'l Des: 2021-041 Owner: SPXS Country: US Constellation: starlink
LEOCIRCULARSTARLINK_TYPE

About Starlink 2166

Description loading...

Live Position

Loading 3D Globe...

Upcoming Passes

Altitude History

Altitude vs Time

uPlot chart will show altitude changes over time

Two-Line Element Set

1 48558U 21041F 25304.52705888 .00014730 00000-0 10052-2 0 9990
2 48558 53.0548 351.4512 0001465 79.9198 280.1956 15.06416081244875
Epoch: Oct 31, 2025 • Age: 25 hours

Current Status

Altitude 564.1 km
Velocity 7.58 km/s
Sub-Earth Point -47.40°S, 43.75°E
Launch Date May 15, 2021
Age 4.4 years
Type internet

Technical Details

Classification Payload
Mass 260.00 kg
Dry Mass 248.00 kg
Total Mass 260.00 kg
Length 0.20 m
Diameter 2.80 m
Span 9.00 m
Shape Box + pan
Manufacturer SPXS
Bus Type Starlink
Phase Status In Orbit
Owner/State SPXS/US

Large Constellations

Loading constellations...